| time (UTC) | temp F | wind direction | speed knots | gust knots | rain 1hr in | rain 24hr in | rain mn in | humidity % | barometer mb |
| 20260507161303 | 55 | 223 | 0.0 | 0.9 | 0.00 | 0.00 | 0.00 | 53 | 1021.7 |
| 20260507160643 | 54 | 148 | 0.0 | 0.9 | 0.00 | 0.00 | 0.00 | 54 | 1021.4 |
| 20260507160040 | 53 | 194 | 0.0 | 6.1 | 0.00 | 0.00 | 0.00 | 56 | 1021.7 |
| 20260507155459 | 53 | 154 | 3.5 | 7.8 | 0.00 | 0.00 | 0.00 | 55 | 1021.7 |
| 20260507154935 | 53 | 164 | 4.3 | 7.8 | 0.00 | 0.00 | 0.00 | 55 | 1021.7 |
| 20260507154345 | 53 | 149 | 0.0 | 5.2 | 0.00 | 0.00 | 0.00 | 55 | 1021.7 |
| 20260507154008 | 51 | 180 | 0.0 | 5.2 | 0.00 | 0.00 | 0.00 | 58 | 1021.7 |
| 20260507153149 | 51 | 159 | 0.0 | 1.7 | 0.00 | 0.00 | 0.00 | 58 | 1021.7 |
| 20260507152559 | 51 | 145 | 0.0 | 7.0 | 0.00 | 0.00 | 0.00 | 58 | 1022.4 |
| 20260507152052 | 52 | 176 | 6.1 | 7.0 | 0.00 | 0.00 | 0.00 | 57 | 1021.7 |
| 20260507151930 | 51 | 197 | 0.9 | 2.6 | 0.00 | 0.00 | 0.00 | 58 | 1022.1 |
| 20260507150851 | 51 | 136 | 0.0 | 3.5 | 0.00 | 0.00 | 0.00 | 58 | 1022.1 |
| 20260507150250 | 51 | 152 | 0.0 | 3.5 | 0.00 | 0.00 | 0.00 | 58 | 1022.1 |
| 20260507145654 | 50 | 199 | 0.0 | 0.0 | 0.00 | 0.00 | 0.00 | 59 | 1022.4 |
| 20260507145050 | 50 | 163 | 0.0 | 2.6 | 0.00 | 0.00 | 0.00 | 60 | 1022.1 |
| 20260507144511 | 49 | 138 | 0.0 | 0.0 | 0.00 | 0.00 | 0.00 | 63 | 1022.1 |
| 20260507143854 | 49 | 149 | 0.0 | 0.0 | 0.00 | 0.00 | 0.00 | 62 | 1022.1 |
| 20260507143308 | 48 | 147 | 0.0 | 0.0 | 0.00 | 0.00 | 0.00 | 64 | 1022.4 |
| 20260507142943 | 48 | 132 | 0.0 | 0.0 | 0.00 | 0.00 | 0.00 | 65 | 1022.1 |
| 20260507142140 | 48 | 135 | 0.0 | 0.9 | 0.00 | 0.00 | 0.00 | 66 | 1022.1 |
| 20260507141613 | 48 | 16 | 0.0 | 0.9 | 0.00 | 0.00 | 0.00 | 65 | 1022.4 |
| 20260507141013 | 48 | 6 | 0.0 | 0.0 | 0.00 | 0.00 | 0.00 | 66 | 1022.8 |
| 20260507140354 | 47 | 6 | 0.0 | 0.0 | 0.00 | 0.00 | 0.00 | 74 | 1022.4 |
| 20260507135754 | 45 | 6 | 0.0 | 0.0 | 0.00 | 0.00 | 0.00 | 79 | 1022.4 |
| 20260507135151 | 44 | 6 | 0.0 | 0.0 | 0.00 | 0.00 | 0.00 | 83 | 1022.8 |
| 20260507134551 | 43 | 7 | 0.0 | 0.0 | 0.00 | 0.00 | 0.00 | 86 | 1022.8 |
| 20260507133954 | 42 | 7 | 0.0 | 0.0 | 0.00 | 0.00 | 0.00 | 89 | 1022.8 |
| 20260507133354 | 42 | 7 | 0.0 | 0.0 | 0.00 | 0.00 | 0.00 | 90 | 1022.4 |
| 20260507132754 | 41 | 7 | 0.0 | 0.0 | 0.00 | 0.00 | 0.00 | 91 | 1022.4 |
| 20260507132135 | 40 | 7 | 0.0 | 0.0 | 0.00 | 0.00 | 0.00 | 91 | 1022.8 |
| 20260507131559 | 39 | 8 | 0.0 | 0.0 | 0.00 | 0.00 | 0.00 | 91 | 1022.4 |
| 20260507131003 | 39 | 8 | 0.0 | 0.0 | 0.00 | 0.00 | 0.00 | 91 | 1022.4 |
| 20260507130411 | 38 | 8 | 0.0 | 0.0 | 0.00 | 0.00 | 0.00 | 91 | 1022.4 |
| 20260507125746 | 38 | 8 | 0.0 | 0.0 | 0.00 | 0.00 | 0.00 | 91 | 1022.4 |
| 20260507125151 | 37 | 8 | 0.0 | 0.0 | 0.00 | 0.00 | 0.00 | 90 | 1022.1 |
| 20260507124627 | 37 | 8 | 0.0 | 0.0 | 0.00 | 0.00 | 0.00 | 90 | 1022.4 |
| 20260507124052 | 37 | 8 | 0.0 | 0.0 | 0.00 | 0.00 | 0.00 | 90 | 1022.4 |
| 20260507123717 | 36 | 8 | 0.0 | 0.0 | 0.00 | 0.00 | 0.00 | 90 | 1022.4 |
| 20260507122854 | 35 | 8 | 0.0 | 0.0 | 0.00 | 0.00 | 0.00 | 90 | 1022.1 |
| 20260507122525 | 35 | 8 | 0.0 | 0.0 | 0.00 | 0.00 | 0.00 | 90 | 1022.1 |
| 20260507121912 | 35 | 8 | 0.0 | 1.7 | 0.00 | 0.00 | 0.00 | 90 | 1022.1 |
| 20260507121054 | 36 | 8 | 0.0 | 0.0 | 0.00 | 0.00 | 0.00 | 89 | 1022.1 |
| 20260507120453 | 36 | 7 | 0.0 | 0.0 | 0.00 | 0.00 | 0.00 | 89 | 1022.1 |
| 20260507115846 | 37 | 7 | 0.0 | 0.0 | 0.00 | 0.00 | 0.00 | 89 | 1022.1 |
| 20260507115513 | 37 | 8 | 0.0 | 0.0 | 0.00 | 0.00 | 0.00 | 89 | 1022.1 |
| 20260507114751 | 38 | 8 | 0.0 | 0.0 | 0.00 | 0.00 | 0.00 | 89 | 1021.7 |
| 20260507114152 | 38 | 8 | 0.0 | 0.0 | 0.00 | 0.00 | 0.00 | 89 | 1021.7 |
| 20260507113551 | 38 | 8 | 0.0 | 0.0 | 0.00 | 0.00 | 0.00 | 89 | 1021.4 |
| 20260507112952 | 38 | 8 | 0.0 | 0.0 | 0.00 | 0.00 | 0.00 | 88 | 1021.7 |
| 20260507112616 | 38 | 8 | 0.0 | 0.0 | 0.00 | 0.00 | 0.00 | 88 | 1021.7 |
| 20260507111757 | 38 | 8 | 0.0 | 0.0 | 0.00 | 0.00 | 0.00 | 88 | 1021.4 |
| 20260507111154 | 38 | 8 | 0.0 | 0.0 | 0.00 | 0.00 | 0.00 | 88 | 1021.7 |
| 20260507110605 | 38 | 8 | 0.0 | 0.0 | 0.00 | 0.00 | 0.00 | 88 | 1021.7 |
| 20260507110230 | 38 | 8 | 0.0 | 0.0 | 0.00 | 0.00 | 0.00 | 87 | 1021.4 |
| 20260507105346 | 38 | 8 | 0.0 | 0.0 | 0.00 | 0.00 | 0.00 | 87 | 1021.7 |
| 20260507104741 | 38 | 8 | 0.0 | 0.0 | 0.00 | 0.00 | 0.00 | 87 | 1021.7 |
| 20260507104633 | 38 | 8 | 0.0 | 0.0 | 0.00 | 0.00 | 0.00 | 87 | 1021.4 |
| 20260507103608 | 38 | 8 | 0.0 | 0.0 | 0.00 | 0.00 | 0.00 | 86 | 1021.4 |
| 20260507103201 | 38 | 8 | 0.0 | 0.0 | 0.00 | 0.00 | 0.00 | 86 | 1021.4 |
| 20260507102353 | 38 | 8 | 0.0 | 0.0 | 0.00 | 0.00 | 0.00 | 86 | 1021.4 |
| 20260507101754 | 39 | 8 | 0.0 | 0.0 | 0.00 | 0.00 | 0.00 | 85 | 1021.4 |
| 20260507101146 | 39 | 8 | 0.0 | 0.0 | 0.00 | 0.00 | 0.00 | 85 | 1021.7 |
| 20260507100551 | 39 | 9 | 0.0 | 0.0 | 0.00 | 0.00 | 0.00 | 85 | 1021.4 |
| 20260507095954 | 39 | 9 | 0.0 | 0.0 | 0.00 | 0.00 | 0.00 | 84 | 1021.4 |
| 20260507095350 | 39 | 9 | 0.0 | 0.0 | 0.00 | 0.00 | 0.00 | 84 | 1021.4 |
| 20260507094743 | 40 | 9 | 0.0 | 0.0 | 0.00 | 0.00 | 0.00 | 83 | 1021.4 |
| 20260507094227 | 40 | 9 | 0.0 | 0.0 | 0.00 | 0.00 | 0.00 | 83 | 1021.7 |
| 20260507093702 | 40 | 9 | 0.0 | 0.0 | 0.00 | 0.00 | 0.00 | 82 | 1021.4 |
| 20260507093105 | 40 | 9 | 0.0 | 0.0 | 0.00 | 0.00 | 0.00 | 82 | 1021.4 |
| 20260507092448 | 40 | 9 | 0.0 | 0.0 | 0.00 | 0.00 | 0.00 | 80 | 1021.4 |
| 20260507091903 | 41 | 9 | 0.0 | 0.0 | 0.00 | 0.00 | 0.00 | 79 | 1021.4 |
| 20260507091253 | 41 | 9 | 0.0 | 0.0 | 0.00 | 0.00 | 0.00 | 78 | 1021.4 |
| 20260507090722 | 41 | 9 | 0.0 | 0.0 | 0.00 | 0.00 | 0.00 | 77 | 1021.4 |
| 20260507090152 | 41 | 9 | 0.0 | 0.0 | 0.00 | 0.00 | 0.00 | 76 | 1021.7 |
| 20260507085551 | 42 | 9 | 0.0 | 0.0 | 0.00 | 0.00 | 0.00 | 75 | 1021.4 |
| 20260507085217 | 42 | 9 | 0.0 | 0.0 | 0.00 | 0.00 | 0.00 | 75 | 1021.4 |
| 20260507084359 | 42 | 9 | 0.0 | 0.0 | 0.00 | 0.00 | 0.00 | 74 | 1021.1 |
| 20260507083757 | 42 | 9 | 0.0 | 0.0 | 0.00 | 0.00 | 0.00 | 74 | 1021.4 |
| 20260507083412 | 43 | 9 | 0.0 | 0.0 | 0.00 | 0.00 | 0.00 | 74 | 1021.4 |
| 20260507082601 | 43 | 9 | 0.0 | 0.9 | 0.00 | 0.00 | 0.00 | 73 | 1021.4 |
| 20260507082017 | 43 | 29 | 0.0 | 0.9 | 0.00 | 0.00 | 0.00 | 72 | 1021.7 |
| 20260507081353 | 43 | 60 | 0.0 | 0.9 | 0.00 | 0.00 | 0.00 | 72 | 1021.1 |
| 20260507080753 | 44 | 72 | 0.0 | 0.9 | 0.00 | 0.00 | 0.00 | 72 | 1021.1 |
| 20260507080419 | 44 | 84 | 0.0 | 3.5 | 0.00 | 0.00 | 0.00 | 72 | 1020.7 |
| 20260507075545 | 44 | 60 | 0.9 | 6.1 | 0.00 | 0.00 | 0.00 | 72 | 1020.7 |
| 20260507074952 | 44 | 86 | 1.7 | 6.1 | 0.00 | 0.00 | 0.00 | 73 | 1020.7 |
| 20260507074350 | 44 | 109 | 1.7 | 9.6 | 0.00 | 0.00 | 0.00 | 73 | 1020.7 |
| 20260507073756 | 44 | 105 | 0.9 | 9.6 | 0.00 | 0.00 | 0.00 | 73 | 1020.7 |
| 20260507073411 | 44 | 71 | 3.5 | 7.0 | 0.00 | 0.00 | 0.00 | 74 | 1021.1 |
| 20260507072551 | 44 | 106 | 1.7 | 12.2 | 0.00 | 0.00 | 0.00 | 74 | 1021.4 |
| 20260507071953 | 44 | 16 | 4.3 | 12.2 | 0.00 | 0.00 | 0.00 | 74 | 1021.7 |
| 20260507071342 | 44 | 31 | 0.0 | 2.6 | 0.00 | 0.00 | 0.00 | 75 | 1021.4 |
| 20260507070750 | 44 | 23 | 0.9 | 2.6 | 0.00 | 0.00 | 0.00 | 75 | 1021.7 |
| 20260507070153 | 44 | 83 | 0.0 | 1.7 | 0.00 | 0.00 | 0.00 | 75 | 1021.7 |
| 20260507065549 | 44 | 17 | 0.0 | 1.7 | 0.00 | 0.00 | 0.00 | 75 | 1022.1 |
| 20260507064952 | 44 | 16 | 0.0 | 3.5 | 0.00 | 0.00 | 0.00 | 74 | 1022.1 |
| 20260507064353 | 44 | 8 | 0.0 | 6.1 | 0.00 | 0.00 | 0.00 | 74 | 1021.7 |
| 20260507063749 | 44 | 18 | 2.6 | 6.1 | 0.00 | 0.00 | 0.00 | 73 | 1022.1 |
| 20260507063621 | 45 | 20 | 3.5 | 6.1 | 0.00 | 0.00 | 0.00 | 73 | 1021.7 |
| 20260507062546 | 45 | 22 | 0.0 | 3.5 | 0.00 | 0.00 | 0.00 | 72 | 1022.1 |
| 20260507061947 | 45 | 25 | 0.0 | 7.8 | 0.00 | 0.00 | 0.00 | 72 | 1022.1 |
| 20260507061345 | 45 | 5 | 4.3 | 7.8 | 0.00 | 0.00 | 0.00 | 71 | 1021.7 |
| 20260507060750 | 45 | 4 | 0.0 | 7.0 | 0.00 | 0.00 | 0.00 | 71 | 1022.1 |
| 20260507060152 | 45 | 347 | 1.7 | 12.2 | 0.00 | 0.00 | 0.00 | 71 | 1021.7 |
| 20260507055548 | 45 | 17 | 7.0 | 11.3 | 0.00 | 0.00 | 0.00 | 72 | 1022.1 |
| 20260507054958 | 45 | 355 | 0.0 | 7.8 | 0.00 | 0.00 | 0.00 | 72 | 1022.1 |
| 20260507054839 | 45 | 349 | 5.2 | 7.8 | 0.00 | 0.00 | 0.00 | 71 | 1021.7 |
| 20260507053747 | 45 | 0 | 1.7 | 8.7 | 0.00 | 0.00 | 0.00 | 71 | 1021.7 |
| 20260507053148 | 46 | 8 | 5.2 | 8.7 | 0.00 | 0.00 | 0.00 | 71 | 1021.4 |
| 20260507052550 | 46 | 8 | 7.0 | 8.7 | 0.00 | 0.00 | 0.00 | 70 | 1021.7 |
| 20260507051953 | 46 | 11 | 1.7 | 12.2 | 0.00 | 0.00 | 0.00 | 69 | 1021.4 |
| 20260507051350 | 46 | 9 | 8.7 | 12.2 | 0.00 | 0.00 | 0.00 | 68 | 1021.4 |
| 20260507050750 | 47 | 7 | 7.8 | 11.3 | 0.00 | 0.00 | 0.00 | 67 | 1021.4 |
| 20260507050154 | 46 | 10 | 6.1 | 11.3 | 0.00 | 0.00 | 0.00 | 67 | 1021.4 |
| 20260507045549 | 47 | 359 | 7.8 | 12.2 | 0.00 | 0.00 | 0.00 | 66 | 1021.4 |
| 20260507045212 | 47 | 2 | 5.2 | 13.9 | 0.00 | 0.00 | 0.00 | 66 | 1021.4 |
| 20260507044337 | 47 | 52 | 5.2 | 11.3 | 0.00 | 0.00 | 0.00 | 65 | 1021.4 |
| 20260507043736 | 47 | 9 | 4.3 | 12.2 | 0.00 | 0.00 | 0.00 | 65 | 1021.1 |
| 20260507043207 | 47 | 2 | 0.9 | 12.2 | 0.00 | 0.00 | 0.00 | 65 | 1021.1 |
| 20260507042636 | 47 | 15 | 8.7 | 12.2 | 0.00 | 0.00 | 0.00 | 65 | 1020.7 |
| 20260507042237 | 47 | 51 | 7.0 | 12.2 | 0.00 | 0.00 | 0.00 | 66 | 1021.1 |
| 20260507041846 | 47 | 14 | 7.0 | 11.3 | 0.00 | 0.00 | 0.00 | 65 | 1020.4 |
| 20260507041031 | 48 | 50 | 4.3 | 9.6 | 0.00 | 0.00 | 0.00 | 64 | 1020.4 |
| 20260507040148 | 48 | 359 | 5.2 | 13.0 | 0.00 | 0.00 | 0.00 | 63 | 1020.0 |
| 20260507035553 | 49 | 344 | 7.0 | 13.9 | 0.00 | 0.00 | 0.00 | 63 | 1020.4 |
| 20260507034954 | 49 | 6 | 9.6 | 13.9 | 0.00 | 0.00 | 0.00 | 62 | 1020.0 |
| 20260507034833 | 49 | 37 | 0.0 | 13.9 | 0.00 | 0.00 | 0.00 | 62 | 1019.7 |
| 20260507033751 | 49 | 6 | 0.9 | 13.9 | 0.00 | 0.00 | 0.00 | 61 | 1019.4 |
| 20260507033154 | 50 | 10 | 4.3 | 13.9 | 0.00 | 0.00 | 0.00 | 60 | 1019.4 |
| 20260507032545 | 50 | 13 | 3.5 | 11.3 | 0.00 | 0.00 | 0.00 | 60 | 1019.7 |
| 20260507032211 | 51 | 20 | 2.6 | 15.6 | 0.00 | 0.00 | 0.00 | 58 | 1019.4 |
| 20260507031622 | 52 | 348 | 2.6 | 12.2 | 0.00 | 0.00 | 0.00 | 56 | 1019.7 |
| 20260507030747 | 52 | 37 | 7.8 | 12.2 | 0.00 | 0.00 | 0.00 | 55 | 1019.4 |
| 20260507030149 | 54 | 9 | 3.5 | 16.5 | 0.00 | 0.00 | 0.00 | 52 | 1019.4 |
| 20260507025557 | 55 | 21 | 10.4 | 20.9 | 0.00 | 0.00 | 0.00 | 50 | 1019.0 |
| 20260507024951 | 56 | 4 | 4.3 | 18.2 | 0.00 | 0.00 | 0.00 | 48 | 1018.7 |
| 20260507024403 | 56 | 5 | 1.7 | 13.0 | 0.00 | 0.00 | 0.00 | 48 | 1018.7 |
| 20260507023834 | 56 | 62 | 7.8 | 16.5 | 0.00 | 0.00 | 0.00 | 48 | 1018.7 |
| 20260507023248 | 56 | 14 | 12.2 | 16.5 | 0.00 | 0.00 | 0.00 | 47 | 1018.3 |
| 20260507022653 | 57 | 10 | 7.8 | 21.7 | 0.00 | 0.00 | 0.00 | 46 | 1018.0 |
| 20260507022053 | 58 | 6 | 12.2 | 26.1 | 0.00 | 0.00 | 0.00 | 46 | 1017.3 |
| 20260507021451 | 58 | 12 | 8.7 | 26.1 | 0.00 | 0.00 | 0.00 | 45 | 1017.3 |
| 20260507021107 | 60 | 345 | 13.0 | 20.0 | 0.00 | 0.00 | 0.00 | 42 | 1016.7 |
| 20260507020252 | 61 | 5 | 6.1 | 26.9 | 0.00 | 0.00 | 0.00 | 40 | 1016.0 |
| 20260507015653 | 63 | 329 | 18.2 | 26.9 | 0.00 | 0.00 | 0.00 | 37 | 1015.3 |
| 20260507015050 | 69 | 306 | 0.0 | 0.0 | 0.00 | 0.00 | 0.00 | 24 | 1015.0 |
| 20260507014455 | 70 | 298 | 0.0 | 0.0 | 0.00 | 0.00 | 0.00 | 20 | 1014.6 |
| 20260507013910 | 70 | 295 | 0.0 | 0.0 | 0.00 | 0.00 | 0.00 | 20 | 1014.6 |
| 20260507013253 | 70 | 256 | 0.0 | 0.0 | 0.00 | 0.00 | 0.00 | 20 | 1014.6 |
| 20260507012906 | 70 | 241 | 0.0 | 0.0 | 0.00 | 0.00 | 0.00 | 19 | 1014.6 |
| 20260507012054 | 71 | 242 | 0.0 | 0.0 | 0.00 | 0.00 | 0.00 | 19 | 1014.3 |
| 20260507011510 | 71 | 226 | 0.0 | 0.0 | 0.00 | 0.00 | 0.00 | 18 | 1014.3 |
| 20260507010855 | 72 | 226 | 0.0 | 0.0 | 0.00 | 0.00 | 0.00 | 17 | 1014.3 |
| 20260507010517 | 72 | 240 | 0.0 | 0.0 | 0.00 | 0.00 | 0.00 | 16 | 1013.9 |
| 20260507005703 | 73 | 211 | 0.0 | 0.0 | 0.00 | 0.00 | 0.00 | 16 | 1013.9 |
| 20260507005049 | 73 | 245 | 0.0 | 0.0 | 0.00 | 0.00 | 0.00 | 15 | 1013.9 |
| 20260507004513 | 73 | 181 | 0.0 | 5.2 | 0.00 | 0.00 | 0.00 | 16 | 1013.6 |
| 20260507003850 | 73 | 197 | 1.7 | 5.2 | 0.00 | 0.00 | 0.00 | 15 | 1013.9 |
| 20260507003307 | 72 | 205 | 0.0 | 0.0 | 0.00 | 0.00 | 0.00 | 16 | 1013.9 |
| 20260507002642 | 72 | 217 | 0.0 | 0.0 | 0.00 | 0.00 | 0.00 | 15 | 1013.6 |
| 20260507002051 | 73 | 227 | 0.0 | 0.0 | 0.00 | 0.00 | 0.00 | 14 | 1013.3 |
| 20260507001547 | 74 | 205 | 0.0 | 0.0 | 0.00 | 0.00 | 0.00 | 14 | 1013.3 |
| 20260507001450 | 74 | 195 | 0.0 | 0.0 | 0.00 | 0.00 | 0.00 | 14 | 1013.6 |
| 20260507000300 | 74 | 220 | 0.0 | 0.9 | 0.00 | 0.00 | 0.00 | 14 | 1013.6 |
| 20260506235945 | 74 | 253 | 0.0 | 5.2 | 0.00 | 0.00 | 0.00 | 14 | 1013.3 |
| 20260506235204 | 74 | 187 | 0.9 | 5.2 | 0.00 | 0.00 | 0.00 | 13 | 1013.9 |
| 20260506234540 | 74 | 237 | 0.0 | 3.5 | 0.00 | 0.00 | 0.00 | 13 | 1013.3 |
| 20260506233953 | 74 | 227 | 0.0 | 0.9 | 0.00 | 0.00 | 0.00 | 14 | 1013.6 |
| 20260506233339 | 73 | 231 | 0.0 | 7.0 | 0.00 | 0.00 | 0.00 | 14 | 1013.3 |
| 20260506232754 | 74 | 217 | 5.2 | 7.0 | 0.00 | 0.00 | 0.00 | 14 | 1013.6 |
| 20260506232152 | 75 | 238 | 0.0 | 1.7 | 0.00 | 0.00 | 0.00 | 14 | 1013.6 |
| 20260506231549 | 75 | 243 | 0.0 | 1.7 | 0.00 | 0.00 | 0.00 | 13 | 1013.3 |
| 20260506230950 | 75 | 195 | 0.0 | 0.0 | 0.00 | 0.00 | 0.00 | 14 | 1013.6 |
| 20260506230349 | 75 | 220 | 0.0 | 0.0 | 0.00 | 0.00 | 0.00 | 14 | 1013.3 |
| 20260506225757 | 75 | 210 | 0.0 | 0.9 | 0.00 | 0.00 | 0.00 | 14 | 1013.6 |
| 20260506225406 | 76 | 178 | 0.0 | 0.0 | 0.00 | 0.00 | 0.00 | 13 | 1013.6 |
| 20260506224541 | 76 | 211 | 0.0 | 3.5 | 0.00 | 0.00 | 0.00 | 14 | 1013.6 |
| 20260506224001 | 76 | 184 | 0.0 | 0.9 | 0.00 | 0.00 | 0.00 | 13 | 1013.3 |
| 20260506223355 | 76 | 197 | 0.0 | 0.0 | 0.00 | 0.00 | 0.00 | 13 | 1013.6 |
| 20260506222751 | 77 | 183 | 0.0 | 0.0 | 0.00 | 0.00 | 0.00 | 14 | 1013.6 |
| 20260506222154 | 76 | 194 | 0.0 | 3.5 | 0.00 | 0.00 | 0.00 | 14 | 1013.6 |
| 20260506221550 | 78 | 210 | 0.9 | 3.5 | 0.00 | 0.00 | 0.00 | 14 | 1013.6 |
| 20260506221217 | 76 | 201 | 0.0 | 1.7 | 0.00 | 0.00 | 0.00 | 14 | 1013.6 |
| 20260506220343 | 76 | 220 | 0.9 | 1.7 | 0.00 | 0.00 | 0.00 | 15 | 1013.6 |
| 20260506215759 | 75 | 206 | 0.0 | 0.0 | 0.00 | 0.00 | 0.00 | 15 | 1013.9 |
| 20260506215149 | 74 | 161 | 0.0 | 1.7 | 0.00 | 0.00 | 0.00 | 17 | 1013.9 |
| 20260506214550 | 74 | 263 | 0.0 | 2.6 | 0.00 | 0.00 | 0.00 | 16 | 1013.9 |
| 20260506213948 | 76 | 184 | 1.7 | 7.0 | 0.00 | 0.00 | 0.00 | 15 | 1013.9 |
| 20260506213403 | 76 | 206 | 2.6 | 7.0 | 0.00 | 0.00 | 0.00 | 15 | 1013.9 |
| 20260506212811 | 76 | 179 | 0.0 | 2.6 | 0.00 | 0.00 | 0.00 | 16 | 1013.9 |
| 20260506212205 | 74 | 222 | 0.9 | 2.6 | 0.00 | 0.00 | 0.00 | 18 | 1013.9 |
| 20260506211551 | 72 | 196 | 0.0 | 6.1 | 0.00 | 0.00 | 0.00 | 19 | 1013.9 |
| 20260506211002 | 74 | 229 | 0.0 | 7.8 | 0.00 | 0.00 | 0.00 | 20 | 1014.3 |
| 20260506210351 | 73 | 198 | 1.7 | 9.6 | 0.00 | 0.00 | 0.00 | 20 | 1014.3 |
| 20260506205803 | 73 | 209 | 2.6 | 9.6 | 0.00 | 0.00 | 0.00 | 20 | 1014.3 |
| 20260506205250 | 73 | 206 | 0.0 | 6.1 | 0.00 | 0.00 | 0.00 | 20 | 1014.3 |
| 20260506204646 | 73 | 242 | 3.5 | 8.7 | 0.00 | 0.00 | 0.00 | 21 | 1014.6 |
| 20260506204526 | 74 | 201 | 3.5 | 8.7 | 0.00 | 0.00 | 0.00 | 20 | 1015.0 |
| 20260506203511 | 73 | 185 | 0.0 | 9.6 | 0.00 | 0.00 | 0.00 | 21 | 1014.6 |
| 20260506203009 | 72 | 210 | 0.0 | 1.7 | 0.00 | 0.00 | 0.00 | 21 | 1014.3 |
| 20260506202352 | 73 | 141 | 0.9 | 5.2 | 0.00 | 0.00 | 0.00 | 21 | 1014.6 |
| 20260506201752 | 73 | 122 | 0.0 | 6.1 | 0.00 | 0.00 | 0.00 | 23 | 1014.6 |
| 20260506201416 | 71 | 203 | 2.6 | 7.8 | 0.00 | 0.00 | 0.00 | 22 | 1014.6 |
| 20260506200551 | 72 | 206 | 1.7 | 3.5 | 0.00 | 0.00 | 0.00 | 22 | 1015.0 |
| 20260506200016 | 73 | 208 | 0.0 | 0.9 | 0.00 | 0.00 | 0.00 | 22 | 1015.0 |
| 20260506195350 | 72 | 192 | 0.0 | 11.3 | 0.00 | 0.00 | 0.00 | 23 | 1014.6 |
| 20260506194753 | 73 | 197 | 3.5 | 11.3 | 0.00 | 0.00 | 0.00 | 21 | 1014.6 |
| 20260506194153 | 70 | 242 | 0.0 | 0.9 | 0.00 | 0.00 | 0.00 | 23 | 1014.6 |
| 20260506193552 | 73 | 215 | 0.0 | 2.6 | 0.00 | 0.00 | 0.00 | 21 | 1015.3 |
| 20260506193009 | 71 | 205 | 0.0 | 2.6 | 0.00 | 0.00 | 0.00 | 22 | 1014.6 |
| 20260506192612 | 73 | 206 | 0.0 | 0.0 | 0.00 | 0.00 | 0.00 | 22 | 1015.0 |
| 20260506191751 | 72 | 200 | 0.0 | 3.5 | 0.00 | 0.00 | 0.00 | 22 | 1015.3 |
| 20260506191156 | 71 | 218 | 0.0 | 0.9 | 0.00 | 0.00 | 0.00 | 23 | 1015.0 |
| 20260506190545 | 70 | 330 | 0.0 | 3.5 | 0.00 | 0.00 | 0.00 | 26 | 1015.3 |
| 20260506190217 | 69 | 208 | 0.0 | 16.5 | 0.00 | 0.00 | 0.00 | 27 | 1015.3 |
| 20260506185351 | 68 | 212 | 0.0 | 2.6 | 0.00 | 0.00 | 0.00 | 28 | 1015.3 |
| 20260506184749 | 68 | 155 | 0.0 | 3.5 | 0.00 | 0.00 | 0.00 | 31 | 1015.6 |
| 20260506184158 | 70 | 215 | 0.0 | 2.6 | 0.00 | 0.00 | 0.00 | 30 | 1015.6 |
| 20260506183816 | 70 | 193 | 1.7 | 6.1 | 0.00 | 0.00 | 0.00 | 29 | 1015.6 |
| 20260506183047 | 68 | 199 | 0.0 | 9.6 | 0.00 | 0.00 | 0.00 | 30 | 1015.6 |
| 20260506182441 | 68 | 208 | 5.2 | 9.6 | 0.00 | 0.00 | 0.00 | 29 | 1015.6 |
| 20260506181848 | 68 | 209 | 0.9 | 6.1 | 0.00 | 0.00 | 0.00 | 30 | 1015.6 |
| 20260506181505 | 69 | 248 | 0.0 | 7.0 | 0.00 | 0.00 | 0.00 | 29 | 1016.0 |
| 20260506180652 | 70 | 182 | 2.6 | 7.0 | 0.00 | 0.00 | 0.00 | 29 | 1016.0 |
| 20260506180110 | 69 | 216 | 2.6 | 5.2 | 0.00 | 0.00 | 0.00 | 29 | 1016.0 |
| 20260506175451 | 70 | 209 | 0.0 | 1.7 | 0.00 | 0.00 | 0.00 | 30 | 1015.6 |
| 20260506174851 | 69 | 183 | 0.9 | 1.7 | 0.00 | 0.00 | 0.00 | 30 | 1015.6 |
| 20260506174311 | 67 | 193 | 0.0 | 7.0 | 0.00 | 0.00 | 0.00 | 31 | 1015.6 |
| 20260506173652 | 68 | 220 | 0.0 | 1.7 | 0.00 | 0.00 | 0.00 | 32 | 1016.3 |
| 20260506173042 | 68 | 273 | 0.0 | 2.6 | 0.00 | 0.00 | 0.00 | 32 | 1016.3 |
| 20260506172501 | 67 | 225 | 0.0 | 6.1 | 0.00 | 0.00 | 0.00 | 31 | 1016.0 |
| 20260506172112 | 67 | 258 | 0.0 | 0.0 | 0.00 | 0.00 | 0.00 | 32 | 1016.3 |
| 20260506171251 | 67 | 341 | 0.0 | 0.0 | 0.00 | 0.00 | 0.00 | 33 | 1016.3 |
| 20260506170643 | 65 | 329 | 0.0 | 0.0 | 0.00 | 0.00 | 0.00 | 36 | 1016.3 |
| 20260506170042 | 64 | 293 | 0.0 | 0.0 | 0.00 | 0.00 | 0.00 | 37 | 1016.3 |
| 20260506165436 | 62 | 5 | 0.0 | 5.2 | 0.00 | 0.00 | 0.00 | 43 | 1016.3 |
| 20260506164921 | 60 | 202 | 0.0 | 0.0 | 0.00 | 0.00 | 0.00 | 44 | 1016.3 |
| 20260506164405 | 60 | 136 | 0.0 | 0.0 | 0.00 | 0.00 | 0.00 | 44 | 1016.3 |
| 20260506163757 | 59 | 192 | 0.0 | 0.0 | 0.00 | 0.00 | 0.00 | 49 | 1016.3 |
| 20260506163153 | 60 | 184 | 0.0 | 0.0 | 0.00 | 0.00 | 0.00 | 48 | 1016.3 |
| 20260506162549 | 58 | 120 | 0.0 | 0.0 | 0.00 | 0.00 | 0.00 | 52 | 1016.3 |
| 20260506161946 | 57 | 149 | 0.0 | 0.0 | 0.00 | 0.00 | 0.00 | 53 | 1016.3 |